(186334) = 2002 EV31

Discovered at Palomar on 2002-03-09 by NEAT.

Orbit

Orbit type: Main Belt

Note: WebGL enabled browser required.

epoch2024-03-31.0
epoch JD2460400.5
perihelion date2018-10-24.90843
perihelion JD2458416.40843
argument of perihelion (°)110.86666
ascending node (°)59.15282
inclination (°)2.13365
eccentricity0.1153826
perihelion distance (AU)2.7430486
Tisserand w.r.t. Jupiter3.2
ΔV w.r.t. Earth (km/sec)10.4
semimajor axis (AU)3.1008306
mean anomaly (°)358.13643
mean daily motion (°/day)0.18050400
aphelion distance (AU)3.459
period (years)5.46
P-vector [x]-0.98431053
P-vector [y]0.14486905
P-vector [z]0.10072606
Q-vector [x]-0.17352547
Q-vector [y]-0.89820631
Q-vector [z]-0.40387416
absolute magnitude16.38
phase slope0.15
uncertainty0
referenceMPEC 2024-E109
observations used310
oppositions14
arc length (days)8060
first opposition used2002
last opposition used2024
residual rms (arc-secs)0.71
perturbers coarse indicatorM-v
perturbers precise indicator003Ek
first observation date used2002-02-10.0
last observation date used2024-03-06.0
computer nameMPCLINUX
JD of orbit computation2456847.701620
perihelion JD uncertainty (days)1.5776E-04
argument of perihelion uncertainty (°)1.5208E-04
ascending node uncertainty (°)1.4853E-04
inclination uncertainty (°)4.7581E-06
eccentricity uncertainty 5.7771E-08
perihelion distance uncertainty (AU)1.8307E-07
Minimum Orbit Intersection Distances (in AU)
for orbit epoch: 2460400.5, reference: E2024-GD4
Mercury2.35083
Venus2.02385
Earth1.75033
Mars1.08043
Jupiter1.50602
Saturn5.89462
Uranus15.6949
Neptune26.4212

Observations

321 total observations over interval: 2002 02 10.31882 – 2024 03 06.376611
These data are available for download (format description).

Date (UT) J2000 RA J2000 Dec Magn Location Ref
2002 02 10.31882 10 45 58.82 +11 22 11.8 19.5   704 – Lincoln Laboratory ETS, New Mexico MPS 55731
2002 02 10.33299 10 45 58.21 +11 22 16.0 20.6   704 – Lincoln Laboratory ETS, New Mexico MPS 55731
2002 02 10.34716 10 45 57.69 +11 22 18.8 19.9   704 – Lincoln Laboratory ETS, New Mexico MPS 55731
2002 02 10.36132 10 45 57.04 +11 22 23.0 19.7   704 – Lincoln Laboratory ETS, New Mexico MPS 55731
2002 02 10.37549 10 45 56.46 +11 22 26.6 19.9   704 – Lincoln Laboratory ETS, New Mexico MPS 55731
2002 03 09.27249 10 25 21.59 +13 22 25.5 21.0   644 – Palomar Mountain/NEAT MPS 55731
2002 03 09.34830 10 25 18.13 +13 22 41.7 21.0   644 – Palomar Mountain/NEAT MPS 55731
2002 03 09.41792 10 25 14.93 +13 22 57.4 21.3   644 – Palomar Mountain/NEAT MPS 55731
2002 03 12.37110 10 23 07.66 +13 33 24.7 20.2   644 – Palomar Mountain/NEAT MPS 55731
2002 03 12.38149 10 23 07.19 +13 33 26.6 20.1   644 – Palomar Mountain/NEAT MPS 55731
2002 03 12.40146 10 23 06.34 +13 33 30.4 20.5   644 – Palomar Mountain/NEAT MPS 55731
2002 03 13.32480 10 22 28.02 +13 36 35.1 20.9   644 – Palomar Mountain/NEAT MPS 55731
2002 03 13.33670 10 22 27.52 +13 36 37.2 20.9   644 – Palomar Mountain/NEAT MPS 55731
2002 03 13.34983 10 22 26.99 +13 36 39.6 20.7   644 – Palomar Mountain/NEAT MPS 55731
2005 10 01.33252 01 58 35.50 +10 15 38.5 20.9 V G96 – Mt. Lemmon Survey MPS 178314
2005 10 01.34091 01 58 35.25 +10 15 36.7 20.7 V G96 – Mt. Lemmon Survey MPS 178314
2005 10 01.34924 01 58 34.89 +10 15 35.3 21.1 V G96 – Mt. Lemmon Survey MPS 178314
2005 10 01.35757 01 58 34.57 +10 15 33.3 21.6 V G96 – Mt. Lemmon Survey MPS 178314
2005 10 01.42429 01 58 31.94 +10 15 20.2 20.9 V G96 – Mt. Lemmon Survey MPS 178314
2005 10 01.42666 01 58 31.83 +10 15 19.8 20.3 V G96 – Mt. Lemmon Survey MPS 178314
2005 10 01.42898 01 58 31.72 +10 15 19.6 21.0 V G96 – Mt. Lemmon Survey MPS 178314
2005 10 01.43134 01 58 31.65 +10 15 19.0 20.3 V G96 – Mt. Lemmon Survey MPS 178314
2005 10 28.26178 01 38 44.91 +08 34 13.0 21.0 V G96 – Mt. Lemmon Survey MPS 149430
2005 10 28.26741 01 38 44.62 +08 34 11.7 21.1 V G96 – Mt. Lemmon Survey MPS 149430
2005 10 28.27304 01 38 44.34 +08 34 10.5 21.2 V G96 – Mt. Lemmon Survey MPS 149430
2005 10 28.27854 01 38 44.12 +08 34 09.1 21.3 V G96 – Mt. Lemmon Survey MPS 149430
2005 10 30.12807 01 37 20.89 +08 27 11.9 21.7 V 691 – Steward Observatory, Kitt Peak-Spacewatch MPS 149430
2005 10 30.14354 01 37 20.20 +08 27 07.8 21.3 V 691 – Steward Observatory, Kitt Peak-Spacewatch MPS 149430
2005 10 30.15901 01 37 19.51 +08 27 04.4 21.9 V 691 – Steward Observatory, Kitt Peak-Spacewatch MPS 149430
2006 10 22.44919 07 31 10.66 +23 03 00.4 22.0 V G96 – Mt. Lemmon Survey MPS 183958
2006 10 22.45641 07 31 10.95 +23 03 00.2 21.8 V G96 – Mt. Lemmon Survey MPS 183958
2006 10 22.46363 07 31 11.20 +23 03 00.0 21.9 V G96 – Mt. Lemmon Survey MPS 183958
2006 10 22.47064 07 31 11.49 +23 02 59.4 22.1 V G96 – Mt. Lemmon Survey MPS 183958
2006 12 01.41816 07 40 40.54 +23 19 14.2 20.9 V G96 – Mt. Lemmon Survey MPS 190365
2006 12 01.42699 07 40 40.40 +23 19 14.7 21.6 V G96 – Mt. Lemmon Survey MPS 190365
2006 12 01.43596 07 40 40.22 +23 19 16.0 20.9 V G96 – Mt. Lemmon Survey MPS 190365
2006 12 01.44483 07 40 40.08 +23 19 16.3 21.3 V G96 – Mt. Lemmon Survey MPS 190365
2006 12 25.28218 07 27 27.05 +24 10 46.3 20.5 V 691 – Steward Observatory, Kitt Peak-Spacewatch MPS 191959
2006 12 25.29955 07 27 26.17 +24 10 49.0 20.8 V 691 – Steward Observatory, Kitt Peak-Spacewatch MPS 191959
2006 12 25.31692 07 27 25.32 +24 10 51.7 20.6 V 691 – Steward Observatory, Kitt Peak-Spacewatch MPS 191959
2008 03 29.27749 14 11 25.93 -11 20 21.9 20.2 V 691 – Steward Observatory, Kitt Peak-Spacewatch MPS 244593
2008 03 29.29256 14 11 25.36 -11 20 19.4 20.3 V 691 – Steward Observatory, Kitt Peak-Spacewatch MPS 244593
2008 03 29.30763 14 11 24.82 -11 20 17.1 20.4 V 691 – Steward Observatory, Kitt Peak-Spacewatch MPS 244593
2008 04 15.38763 13 59 22.56 -10 23 40.1 19.7 V G96 – Mt. Lemmon Survey MPS 247588
2008 04 15.39333 13 59 22.30 -10 23 39.0 20.1 V G96 – Mt. Lemmon Survey MPS 247588
2008 04 15.39899 13 59 22.02 -10 23 37.8 19.9 V G96 – Mt. Lemmon Survey MPS 247588
2008 04 15.40464 13 59 21.76 -10 23 36.4 20.1 V G96 – Mt. Lemmon Survey MPS 247588
2008 05 03.27519 13 45 37.62 -09 20 45.5 20.5 V G96 – Mt. Lemmon Survey MPS 248923
2008 05 03.28184 13 45 37.33 -09 20 44.2 20.4 V G96 – Mt. Lemmon Survey MPS 248923
2008 05 03.28858 13 45 37.04 -09 20 42.9 20.5 V G96 – Mt. Lemmon Survey MPS 248923
2008 05 03.29522 13 45 36.75 -09 20 41.6 20.3 V G96 – Mt. Lemmon Survey MPS 248923
2008 05 27.23025 13 33 14.36 -08 32 09.2 20.5 V G96 – Mt. Lemmon Survey MPS 250899
2008 05 27.23582 13 33 14.32 -08 32 08.7 20.9 V G96 – Mt. Lemmon Survey MPS 250899
2008 05 27.24144 13 33 14.14 -08 32 07.6 21.1 V G96 – Mt. Lemmon Survey MPS 250899
2008 05 27.24712 13 33 14.04 -08 32 07.6 21.0 V G96 – Mt. Lemmon Survey MPS 250899
2011 10 21.37933 04 36 55.40 +22 00 36.1 20.8 V G96 – Mt. Lemmon Survey MPS 396007
2011 10 21.38858 04 36 55.18 +22 00 36.0 21.2 V G96 – Mt. Lemmon Survey MPS 396007
2011 10 21.39798 04 36 54.93 +22 00 35.7 21.2 V G96 – Mt. Lemmon Survey MPS 396007
2011 10 21.40729 04 36 54.72 +22 00 35.9 21.7 V G96 – Mt. Lemmon Survey MPS 396007
2011 10 26.42337 04 34 54.094 +21 59 08.71 21.9 w F51 – Pan-STARRS 1, Haleakala MPS 397835
2011 10 26.43789 04 34 53.672 +21 59 08.38 21.8 w F51 – Pan-STARRS 1, Haleakala MPS 397835
2011 10 26.45245 04 34 53.260 +21 59 07.97 21.7 w F51 – Pan-STARRS 1, Haleakala MPS 397835
2011 10 26.46701 04 34 52.844 +21 59 07.62 21.9 w F51 – Pan-STARRS 1, Haleakala MPS 397835
2011 11 17.17424 04 20 21.71 +21 39 23.3 21.0 V 691 – Steward Observatory, Kitt Peak-Spacewatch MPS 400900
2011 11 17.18442 04 20 21.20 +21 39 23.3 21.1 V 691 – Steward Observatory, Kitt Peak-Spacewatch MPS 400900
2011 11 17.19459 04 20 20.71 +21 39 22.1 21.2 V 691 – Steward Observatory, Kitt Peak-Spacewatch MPS 400900
2011 11 17.34288 04 20 13.12 +21 39 10.4 20.4 V G96 – Mt. Lemmon Survey MPS 400900
2011 11 17.34920 04 20 12.80 +21 39 09.7 20.4 V G96 – Mt. Lemmon Survey MPS 400900
2011 11 17.35558 04 20 12.48 +21 39 09.0 20.2 V G96 – Mt. Lemmon Survey MPS 400900
2011 11 17.36198 04 20 12.15 +21 39 08.6 19.4 V G96 – Mt. Lemmon Survey MPS 400900
2011 11 30.30844 04 08 53.907 +21 18 23.32 20.5 i F51 – Pan-STARRS 1, Haleakala MPS 403600
2011 11 30.32102 04 08 53.231 +21 18 21.88 20.7 i F51 – Pan-STARRS 1, Haleakala MPS 403600
2011 12 27.13324 03 48 45.82 +20 34 22.0 20.3 V G96 – Mt. Lemmon Survey MPS 405717
2011 12 27.14189 03 48 45.57 +20 34 21.5 21.1 V G96 – Mt. Lemmon Survey MPS 405717
2011 12 27.15053 03 48 45.32 +20 34 21.1 20.8 V G96 – Mt. Lemmon Survey MPS 405717
2011 12 27.15926 03 48 44.96 +20 34 20.2 21.0 V G96 – Mt. Lemmon Survey MPS 405717
2011 12 28.23365 03 48 11.66 +20 33 04.7 20.3 V G96 – Mt. Lemmon Survey MPS 405717
2011 12 28.24481 03 48 11.26 +20 33 04.0 21.0 V G96 – Mt. Lemmon Survey MPS 405717
2011 12 28.25605 03 48 10.94 +20 33 03.5 20.3 V G96 – Mt. Lemmon Survey MPS 405717
2011 12 28.26720 03 48 10.58 +20 33 02.8 19.6 V G96 – Mt. Lemmon Survey MPS 405717
2013 02 05.36382 10 54 56.79 +10 23 30.0 20.4 V 691 – Steward Observatory, Kitt Peak-Spacewatch MPS 455718
2013 02 05.38153 10 54 56.18 +10 23 35.3 20.4 V 691 – Steward Observatory, Kitt Peak-Spacewatch MPS 455718
2013 02 05.39924 10 54 55.49 +10 23 39.3 20.4 V 691 – Steward Observatory, Kitt Peak-Spacewatch MPS 455718
2013 02 12.07285 10 50 43.43 +10 52 41.6 19.5 R J04 – ESA Optical Ground Station, Tenerife MPS 455718
2013 02 12.08442 10 50 42.94 +10 52 44.3 19.7 R J04 – ESA Optical Ground Station, Tenerife MPS 455718
2013 02 12.09600 10 50 42.45 +10 52 47.7 19.7 R J04 – ESA Optical Ground Station, Tenerife MPS 455718
2013 02 12.10757 10 50 41.94 +10 52 51.0 19.8 R J04 – ESA Optical Ground Station, Tenerife MPS 455718
2013 02 14.29867 10 49 10.27 +11 02 55.1 20.5 V 691 – Steward Observatory, Kitt Peak-Spacewatch MPS 455718
2013 02 14.31639 10 49 09.47 +11 03 00.0 20.4 V 691 – Steward Observatory, Kitt Peak-Spacewatch MPS 455718
2013 02 14.33410 10 49 08.70 +11 03 04.9 20.2 V 691 – Steward Observatory, Kitt Peak-Spacewatch MPS 455718
